                ,  0.865,  0.962,  1.058,  1.155,  1.251,  1.348,  1.445,  1.541,  1.638,  1.734,  1.831,  1.928,  2.024,  2.121,  2.217,  2.314,  2.410,  2.507,  2.604,  2.700,  2.797,  2.893,  2.990,  3.087,  3.183,  3.280,  3.376,  3.473,  3.570,  3.666,  3.763,  3.859,  3.956,  4.053,  4.149,  4.246,  4.342,  4.439,  4.536,  4.632,  4.729,  4.825,  4.922,  5.018,  5.115,  5.212,  5.308,  5.405,  5.501,  5.598,  5.695,  5.791
1998/11/15 00:00,  999.0,  999.0,  999.0,  999.0,  999.0,   -1.9,   -0.4,   -1.2,   -1.4,   -1.9,   -2.2,   -0.1,   -1.8,   -1.6,   -0.5,  999.0,  999.0,  999.0,  999.0,  999.0,  999.0,  999.0,   -1.5,  999.0,    0.0,    0.0,   -0.2,    0.5,  999.0,    0.4,    0.6,   -0.7,  999.0,   -1.3,   -1.7,  999.0,  999.0,    0.1,    0.2,    0.0,  999.0,  999.0,  999.0,  999.0,  999.0,  999.0,  999.0,   -0.5,    0.3,  999.0,    0.1,  999.0
1998/11/15 00:10,  999.0,  999.0,  999.0,  999.0,  999.0,  999.0,   -1.6,   -1.9,   -2.1,   -1.8,  999.0,   -2.2,   -1.2,   -0.1,   -1.8,   -1.7,   -2.7,  999.0,   -0.6,  999.0,  999.0,   -1.3,   -0.9,   -0.6,    0.8,    0.3,    0.3,    0.3,   -0.6,  999.0,    0.3,    0.3,    0.9,    0.7,   -0.2,  999.0,    0.1,   -0.1,    0.1,   -0.1,  999.0,  999.0,  999.0,  999.0,  999.0,  999.0,  999.0,  999.0,    0.1,  999.0,  999.0,  999.0
1998/11/15 00:20,  999.0,  999.0,  999.0,  999.0,  999.0,  999.0,   -1.4,   -1.4,   -0.6,  999.0,   -3.1,  999.0,  999.0,  999.0,  999.0,   -0.7,  999.0,  999.0,  999.0,   -1.6,  999.0,   -2.6,   -1.8,  999.0,   -0.1,   -0.3,   -0.1,   -0.1,    0.1,    0.2,    0.2,   -0.9,   -0.6,   -0.8,  999.0,  999.0,  999.0,   -0.3,   -0.2,    0.1,  999.0,  999.0,  999.0,  999.0,  999.0,  999.0,  999.0,  999.0,   -0.1,  999.0,   -0.2,  999.0
1998/11/15 00:30,  999.0,  999.0,  999.0,  999.0,  999.0,  999.0,   -1.1,   -1.1,   -0.4,   -1.4,   -2.5,   -3.4,   -1.5,   -2.7,   -0.2,    0.5,  999.0,  999.0,  999.0,   -2.1,  999.0,   -1.5,   -1.0,   -1.9,   -0.2,    0.1,   -0.1,   -0.0,  999.0,   -0.1,   -0.1,   -0.3,    0.1,   -0.4,   -1.6,   -1.7,  999.0,    0.0,   -0.4,    0.1,  999.0,  999.0,  999.0,  999.0,  999.0,  999.0,  999.0,    0.2,   -0.0,   -0.0,   -0.5,  999.0
1998/11/15 00:40,  999.0,  999.0,  999.0,  999.0,  999.0,  999.0,  999.0,  999.0,   -1.0,   -1.1,   -3.3,   -3.6,   -3.3,   -3.4,   -1.2,   -1.3,   -0.4,  999.0,   -3.1,   -3.8,  999.0,  999.0,   -0.5,   -0.7,    0.1,    0.0,    0.2,    1.1,  999.0,    0.1,    0.6,    0.6,    0.4,   -0.8,    0.0,    0.4,  999.0,    0.4,  999.0,  999.0,  999.0,  999.0,  999.0,  999.0,  999.0,  999.0,  999.0,    0.1,   -0.1,   -0.4,    0.1,  999.0
1998/11/15 00:50,  999.0,  999.0,  999.0,  999.0,  999.0,  999.0,   -1.1,   -0.6,   -1.1,   -1.9,   -2.5,   -2.6,   -2.9,   -2.5,   -2.1,  999.0,   -0.0,   -0.7,  999.0,  999.0,   -3.6,   -2.1,   -0.5,   -0.2,   -0.1,   -0.1,    0.0,    0.2,  999.0,    0.3,    0.3,  999.0,    0.6,  999.0,    0.5,   -0.0,   -0.5,   -1.0,   -1.8,   -0.6,  999.0,  999.0,  999.0,  999.0,  999.0,  999.0,  999.0,   -0.3,   -0.3,   -0.6,  999.0,  999.0
1998/11/15 01:00,  999.0,  999.0,  999.0,  999.0,  999.0,  999.0,  999.0,   -1.6,   -2.8,   -2.6,   -4.1,   -3.9,   -3.3,  999.0,   -1.2,   -0.3,   -0.1,  999.0,  999.0,  999.0,  999.0,   -3.8,  999.0,    0.5,   -0.0,    0.1,    0.2,    0.3,  999.0,    0.2,    0.1,    0.1,    0.2,  999.0,   -0.2,   -0.9,   -0.5,   -0.7,   -0.8,   -0.3,  999.0,  999.0,  999.0,  999.0,  999.0,  999.0,  999.0,   -0.4,   -0.0,   -0.0,   -0.1,  999.0
1998/11/15 01:10,  999.0,  999.0,  999.0,  999.0,  999.0,  999.0,  999.0,   -1.1,   -1.2,   -1.2,   -3.5,   -3.6,   -3.6,   -2.5,   -1.1,   -0.2,    0.7,  999.0,  999.0,  999.0,  999.0,   -3.2,  999.0,  999.0,    0.1,  999.0,    0.3,   -0.1,  999.0,    0.2,   -0.2,   -0.6,   -0.5,   -1.2,   -1.5,   -2.3,   -0.9,   -0.6,   -1.3,   -0.7,  999.0,  999.0,  999.0,  999.0,  999.0,  999.0,  999.0,    0.1,   -0.2,  999.0,   -0.0,  999.0
1998/11/15 01:20,  999.0,  999.0,  999.0,  999.0,  999.0,  999.0,  999.0,   -0.9,   -1.6,   -0.8,   -3.9,   -4.4,   -3.2,   -2.0,   -1.5,   -0.4,   -0.3,  999.0,  999.0,  999.0,  999.0,  999.0,   -0.6,   -0.0,    0.3,    0.2,    0.3,    0.3,  999.0,    0.3,    0.4,   -0.0,    0.1,   -0.6,   -1.6,   -3.1,  999.0,   -3.1,   -3.2,   -1.4,  999.0,  999.0,  999.0,  999.0,  999.0,  999.0,  999.0,  999.0,   -0.4,   -0.4,  999.0,  999.0
1998/11/15 01:30,  999.0,  999.0,  999.0,  999.0,  999.0,  999.0,   -0.3,   -0.5,   -0.3,   -0.7,   -3.7,   -4.3,   -3.8,   -3.8,  999.0,   -0.5,   -1.1,   -1.0,  999.0,   -2.4,  999.0,  999.0,   -0.5,   -0.0,    0.1,   -0.1,   -0.2,    0.5,    0.6,  999.0,    0.7,    0.8,   -1.5,   -0.9,   -1.2,   -3.2,  999.0,   -0.1,  999.0,   -0.2,  999.0,  999.0,  999.0,  999.0,  999.0,  999.0,  999.0,  999.0,  999.0,  999.0,    0.2,  999.0
1998/11/15 01:40,  999.0,  999.0,  999.0,  999.0,  999.0,  999.0,  999.0,   -0.1,   -0.4,   -1.1,   -1.7,   -3.3,   -3.5,   -3.5,   -1.4,   -0.0,  999.0,   -0.1,  999.0,   -2.1,   -1.6,   -0.5,   -0.6,    0.0,    0.6,    0.0,    0.0,   -0.3,   -0.4,    0.1,   -0.1,    0.2,   -0.6,   -1.7,   -0.2,  999.0,    0.5,    0.1,    0.1,   -0.2,  999.0,  999.0,  999.0,  999.0,  999.0,  999.0,    0.2,  999.0,   -0.0,   -0.4,   -0.4,  999.0
1998/11/15 01:50,  999.0,  999.0,  999.0,  999.0,  999.0,  999.0,  999.0,    0.2,   -1.7,   -0.3,   -1.6,   -2.9,   -3.1,  999.0,   -1.0,   -1.6,  999.0,  999.0,  999.0,  999.0,  999.0,   -0.3,   -0.5,   -1.0,    0.0,    0.3,    0.3,  999.0,    0.0,    0.6,    1.6,    0.8,  999.0,  999.0,  999.0,  999.0,    0.4,    0.2,  999.0,  999.0,  999.0,  999.0,  999.0,  999.0,  999.0,  999.0,  999.0,  999.0,    0.1,    0.0,    0.0,  999.0
1998/11/15 02:00,  999.0,  999.0,  999.0,  999.0,  999.0,  999.0,  999.0,   -1.6,   -1.8,   -1.6,   -1.6,   -2.5,   -2.2,   -1.4,   -0.8,   -0.4,   -0.9,  999.0,   -2.8,   -4.0,   -2.0,   -0.6,    0.1,    0.1,    0.1,   -0.1,   -0.2,   -0.1,   -0.2,    0.1,    0.5,   -0.4,   -1.1,   -2.5,  999.0,  999.0,  999.0,  999.0,   -0.3,    0.2,  999.0,  999.0,  999.0,  999.0,  999.0,  999.0,  999.0,  999.0,    0.2,    0.5,    0.0,  999.0
1998/11/15 02:10,  999.0,  999.0,  999.0,  999.0,  999.0,  999.0,  999.0,  999.0,   -1.5,   -0.5,   -1.9,   -1.1,  999.0,  999.0,  999.0,  999.0,   -0.0,  999.0,   -4.8,  999.0,   -2.0,   -0.9,   -0.6,   -0.4,    0.1,   -0.5,   -0.2,   -0.1,  999.0,   -0.1,    0.3,    0.3,    0.4,  999.0,  999.0,  999.0,  999.0,    0.3,  999.0,    0.6,  999.0,  999.0,  999.0,  999.0,  999.0,  999.0,  999.0,   -0.1,    0.5,  999.0,    0.1,  999.0
1998/11/15 02:20,  999.0,  999.0,  999.0,  999.0,  999.0,  999.0,  999.0,   -1.9,   -2.1,   -2.5,   -1.6,   -1.7,  999.0,  999.0,    0.7,   -0.4,   -0.5,   -1.6,   -1.1,   -0.2,    0.2,    0.0,   -0.1,    0.3,   -0.5,   -0.0,   -0.4,    0.6,    0.4,   -0.4,  999.0,   -0.3,   -1.1,   -2.2,  999.0,   -0.7,  999.0,   -0.3,   -0.4,   -0.5,  999.0,  999.0,    0.1,  999.0,  999.0,  999.0,  999.0,  999.0,   -0.1,    0.1,  999.0,  999.0
1998/11/15 02:30,  999.0,  999.0,  999.0,  999.0,  999.0,  999.0,  999.0,   -1.3,   -2.5,   -4.1,   -3.2,   -3.0,   -3.3,   -0.2,   -0.7,   -0.3,   -1.1,  999.0,   -3.3,  999.0,  999.0,  999.0,   -0.6,   -0.3,   -0.4,    0.2,    0.1,    0.1,    0.7,    0.2,    0.0,   -0.3,  999.0,  999.0,  999.0,  999.0,  999.0,    0.4,  999.0,    0.6,  999.0,  999.0,  999.0,  999.0,  999.0,    1.9,  999.0,  999.0,    0.1,  999.0,    0.5,  999.0
